Redding, CA

4:26 AM PST on January 19, 2017 (GMT -0800)
Redding Municipal

Weather History for KRDD - October, 2013

Change the Weather History Date:

Monday, October 28, 2013

  Actual Average Record
Temperature  
Mean Temperature 52 °F -  
Max Temperature 59 °F 71 °F 97 °F (2003)
Min Temperature 45 °F 46 °F 36 °F (2011)
Degree Days  
Heating Degree Days 13    
Cooling Degree Days 0    
Growing Degree Days 2 (Base 50)    
Moisture  
Dew Point 38 °F    
Average Humidity 55    
Maximum Humidity 64    
Minimum Humidity 45    
Precipitation  
Precipitation 0.00 in 0.10 in 1.39 in (2000)
Month to date precipitation 0.01 1.77  
Year to date precipitation 10.70 23.54  
Since 1 July precipitation 1.40  
Sea Level Pressure  
Sea Level Pressure 29.69 in    
Wind  
Wind Speed 5 mph (SE)    
Max Wind Speed 14 mph    
Max Gust Speed 15 mph    
Visibility 10 miles    
Events Rain    
T = Trace of Precipitation, MM = Missing Value Source: NWS Daily Summary

Daily Weather History Graph

Daily Weather History Graph

Search for Another Location

Airport or City:

Trip Planner

Search our weather history database for the weather conditions in past years. The results will help you decide how hot, cold, wet, or windy it might be!

Date:

Astronomy

Oct. 28, 2013 Rise Set
Actual Time 7:34 AM PDT 6:10 PM PDT
Civil Twilight 7:06 AM PDT 6:38 PM PDT
Nautical Twilight 6:34 AM PDT 7:10 PM PDT
Astronomical Twilight 6:03 AM PDT 7:42 PM PDT
Moon 1:31 AM PDT (10/28) 2:56 PM PDT (10/28)
Length of Visible Light 11h 31m
Length of Day
10h 35m
Waning Crescent, 33% of the Moon is Illuminated
Oct 28
Waning Crescent
Nov 3
New
Nov 9
First Quarter
Nov 17
Full
Nov 25
Last Quarter

Hourly Weather History & Observations

Time (PDT) Temp. Dew Point Humidity Pressure Visibility Wind Dir Wind Speed Gust Speed Precip Events Conditions
12:53 AM 54.0 °F 32.0 °F 43% 29.63 in 10.0 mi NNW 4.6 mph - N/A   Mostly Cloudy
1:53 AM 54.0 °F 32.0 °F 43% 29.62 in 10.0 mi North 6.9 mph - N/A   Mostly Cloudy
2:53 AM 53.1 °F 32.0 °F 45% 29.61 in 10.0 mi NW 3.5 mph - N/A   Mostly Cloudy
3:53 AM 51.1 °F 32.0 °F 48% 29.60 in 10.0 mi North 3.5 mph - N/A   Clear
4:53 AM 46.9 °F 34.0 °F 61% 29.60 in 10.0 mi SSE 3.5 mph - N/A   Partly Cloudy
5:53 AM 46.9 °F 33.1 °F 59% 29.61 in 10.0 mi Calm Calm - N/A   Overcast
6:53 AM 48.0 °F 34.0 °F 58% 29.61 in 10.0 mi Calm Calm - N/A   Overcast
7:53 AM 48.9 °F 34.0 °F 56% 29.62 in 10.0 mi Calm Calm - N/A   Overcast
8:53 AM 50.0 °F 35.1 °F 57% 29.65 in 10.0 mi Calm Calm - N/A   Mostly Cloudy
9:53 AM 52.0 °F 35.1 °F 53% 29.67 in 10.0 mi SSE 6.9 mph - N/A   Overcast
10:53 AM 53.1 °F 41.0 °F 64% 29.68 in 10.0 mi SSE 11.5 mph - N/A   Mostly Cloudy
11:53 AM 55.0 °F 42.1 °F 62% 29.68 in 10.0 mi SSE 11.5 mph - N/A   Scattered Clouds
12:53 PM 57.0 °F 41.0 °F 55% 29.68 in 10.0 mi South 9.2 mph - N/A   Overcast
1:53 PM 55.9 °F 41.0 °F 57% 29.67 in 10.0 mi South 9.2 mph - N/A   Overcast
2:53 PM 57.9 °F 39.0 °F 49% 29.67 in 10.0 mi SSW 4.6 mph - N/A   Partly Cloudy
3:53 PM 57.9 °F 39.0 °F 49% 29.68 in 10.0 mi SSE 9.2 mph - N/A   Overcast
4:53 PM 57.9 °F 39.9 °F 51% 29.70 in 10.0 mi SSE 8.1 mph - N/A   Overcast
5:53 PM 57.0 °F 37.9 °F 49% 29.71 in 10.0 mi SSE 5.8 mph - N/A   Overcast
6:53 PM 55.9 °F 39.0 °F 53% 29.74 in 10.0 mi Calm Calm - N/A   Overcast
7:53 PM 55.0 °F 39.9 °F 57% 29.77 in 10.0 mi ENE 3.5 mph - 0.00 in Rain Light Rain
8:53 PM 54.0 °F 42.1 °F 64% 29.78 in 10.0 mi NE 5.8 mph - 0.00 in   Overcast
9:53 PM 53.1 °F 43.0 °F 69% 29.81 in 10.0 mi ENE 4.6 mph - N/A   Overcast
10:53 PM 53.1 °F 43.0 °F 69% 29.83 in 10.0 mi NE 4.6 mph - N/A   Overcast
11:53 PM 52.0 °F 43.0 °F 71% 29.84 in 10.0 mi Calm Calm - N/A   Overcast